When you browse on this site, cookies collect data to enhance your experience and personalize the content and advertising you see.
Visit our Privacy Policy to learn more. By continuing to use the site, you agree to this use of cookies and data.
  • In Hungary
  • List of Countries
  • For 7 days
  • Water Temperature
  • Weather Map
  • News
  • Weather Widgets
  • user-avatar
    Login

    Hourly Weather Dorotowo

    Today, 21 November, Thursday

    Time Temperature Precipitation Wind Pressure Humidity
    00:00 +8°C° 0 mm 5 mps 753 mmHg 89%
    01:00 +8°C° 0 mm 5 mps 753 mmHg 88%
    02:00 +8°C° 0 mm 5 mps 752 mmHg 87%
    03:00 +8°C° 0 mm 6 mps 752 mmHg 87%
    04:00 +8°C° 0 mm 6 mps 751 mmHg 86%
    05:00 +8°C° 0 mm 6 mps 751 mmHg 85%
    06:00 +8°C° 0 mm 6 mps 751 mmHg 85%
    07:00 +7°C° 0 mm 6 mps 751 mmHg 84%
    08:00 +8°C° 0 mm 6 mps 751 mmHg 83%
    09:00 +8°C° 0 mm 7 mps 751 mmHg 82%
    10:00 +8°C° 0 mm 7 mps 751 mmHg 81%
    11:00 +8°C° 0.1 mm 7 mps 751 mmHg 82%
    12:00 +8°C° 0.1 mm 7 mps 750 mmHg 84%
    13:00 +8°C° 0.1 mm 7 mps 750 mmHg 85%
    14:00 +8°C° 0.2 mm 7 mps 750 mmHg 85%
    15:00 +8°C° 0.2 mm 7 mps 750 mmHg 85%
    16:00 +6°C° 0.2 mm 7 mps 749 mmHg 86%
    17:00 +6°C° 0.4 mm 7 mps 749 mmHg 84%
    18:00 +6°C° 0.4 mm 7 mps 749 mmHg 83%
    19:00 +6°C° 0.4 mm 7 mps 749 mmHg 82%
    20:00 +6°C° 0.3 mm 7 mps 749 mmHg 84%
    21:00 +6°C° 0.3 mm 7 mps 749 mmHg 87%
    22:00 +6°C° 0.3 mm 7 mps 749 mmHg 89%
    23:00 +6°C° 0.3 mm 7 mps 749 mmHg 88%

    Tomorrow, 22 November, Friday

    Time Temperature Precipitation Wind Pressure Humidity
    00:00 +7°C° 0.3 mm 6 mps 749 mmHg 87%
    01:00 +8°C° 0.3 mm 6 mps 749 mmHg 86%
    02:00 +8°C° 0.2 mm 6 mps 749 mmHg 87%
    03:00 +8°C° 0.2 mm 6 mps 749 mmHg 87%
    04:00 +7°C° 0.2 mm 6 mps 748 mmHg 87%
    05:00 +7°C° 0.1 mm 6 mps 749 mmHg 86%
    06:00 +7°C° 0.1 mm 6 mps 749 mmHg 85%
    07:00 +8°C° 0.1 mm 6 mps 750 mmHg 84%
    08:00 +7°C° 0 mm 6 mps 750 mmHg 83%
    09:00 +7°C° 0 mm 6 mps 750 mmHg 81%
    10:00 +7°C° 0 mm 6 mps 750 mmHg 80%
    11:00 +7°C° 0 mm 6 mps 750 mmHg 79%
    12:00 +7°C° 0 mm 6 mps 751 mmHg 78%
    13:00 +7°C° 0 mm 6 mps 751 mmHg 77%
    14:00 +7°C° 0 mm 6 mps 751 mmHg 77%
    15:00 +5°C° 0 mm 6 mps 751 mmHg 77%
    16:00 +5°C° 0 mm 6 mps 751 mmHg 77%
    17:00 +4°C° 0 mm 6 mps 751 mmHg 77%
    18:00 +4°C° 0 mm 6 mps 751 mmHg 76%
    19:00 +3°C° 0 mm 6 mps 751 mmHg 76%
    20:00 +3°C° 0 mm 6 mps 751 mmHg 76%
    21:00 +2°C° 0 mm 6 mps 751 mmHg 77%
    22:00 +2°C° 0 mm 5 mps 751 mmHg 77%
    23:00 +1°C° 0 mm 5 mps 751 mmHg 77%

    Day after tomorrow, 23 November, Saturday

    Time Temperature Precipitation Wind Pressure Humidity
    00:00 +1°C° 0 mm 5 mps 751 mmHg 77%
    01:00 +1°C° 0 mm 5 mps 751 mmHg 77%
    02:00 +1°C° 0 mm 5 mps 751 mmHg 77%
    03:00 0°C° 0 mm 5 mps 751 mmHg 78%
    04:00 0°C° 0 mm 5 mps 751 mmHg 79%
    05:00 0°C° 0 mm 5 mps 751 mmHg 78%
    06:00 -2°C° 0 mm 6 mps 751 mmHg 78%
    07:00 -2°C° 0 mm 6 mps 751 mmHg 78%
    08:00 -2°C° 0 mm 6 mps 751 mmHg 76%
    09:00 -1°C° 0 mm 6 mps 751 mmHg 74%
    10:00 -1°C° 0 mm 6 mps 750 mmHg 72%
    11:00 +1°C° 0 mm 6 mps 750 mmHg 70%
    12:00 +1°C° 0 mm 6 mps 750 mmHg 68%
    13:00 +2°C° 0 mm 6 mps 750 mmHg 66%
    14:00 +1°C° 0 mm 6 mps 750 mmHg 67%
    15:00 +1°C° 0 mm 6 mps 750 mmHg 68%
    16:00 +1°C° 0 mm 6 mps 750 mmHg 69%
    17:00 0°C° 0 mm 5 mps 750 mmHg 72%
    18:00 0°C° 0 mm 5 mps 750 mmHg 74%
    19:00 0°C° 0 mm 5 mps 751 mmHg 76%
    20:00 0°C° 0 mm 5 mps 751 mmHg 81%
    21:00 -1°C° 0 mm 5 mps 751 mmHg 85%
    22:00 -1°C° 0 mm 5 mps 751 mmHg 89%
    23:00 -1°C° 0 mm 5 mps 751 mmHg 89%

    24 November, Sunday

    Time Temperature Precipitation Wind Pressure Humidity
    00:00 -1°C° 0 mm 5 mps 751 mmHg 90%
    01:00 -1°C° 0 mm 5 mps 751 mmHg 90%
    02:00 -2°C° 0 mm 5 mps 751 mmHg 89%
    03:00 -2°C° 0 mm 4 mps 751 mmHg 89%
    04:00 -2°C° 0 mm 4 mps 751 mmHg 89%
    05:00 -2°C° 0 mm 4 mps 751 mmHg 89%
    06:00 -2°C° 0 mm 4 mps 751 mmHg 89%
    07:00 -2°C° 0 mm 4 mps 751 mmHg 89%
    08:00 -2°C° 0 mm 4 mps 751 mmHg 87%
    09:00 -1°C° 0 mm 4 mps 752 mmHg 84%
    10:00 -1°C° 0 mm 4 mps 752 mmHg 82%
    11:00 0°C° 0 mm 4 mps 752 mmHg 81%
    12:00 0°C° 0 mm 4 mps 752 mmHg 79%
    13:00 +1°C° 0 mm 4 mps 752 mmHg 78%
    14:00 +1°C° 0 mm 4 mps 752 mmHg 78%
    15:00 0°C° 0 mm 4 mps 752 mmHg 79%
    16:00 0°C° 0 mm 4 mps 752 mmHg 80%
    17:00 +1°C° 0 mm 3 mps 752 mmHg 80%
    18:00 +1°C° 0 mm 3 mps 752 mmHg 81%
    19:00 +1°C° 0 mm 3 mps 752 mmHg 81%
    20:00 0°C° 0 mm 3 mps 752 mmHg 82%
    21:00 0°C° 0 mm 3 mps 752 mmHg 83%
    22:00 +1°C° 0 mm 2 mps 752 mmHg 84%
    23:00 +1°C° 0 mm 2 mps 752 mmHg 85%

    25 November, Monday

    Time Temperature Precipitation Wind Pressure Humidity
    00:00 -1°C° 0 mm 2 mps 752 mmHg 86%
    01:00 -1°C° 0 mm 2 mps 752 mmHg 88%
    02:00 -1°C° 0 mm 2 mps 752 mmHg 88%
    03:00 -1°C° 0 mm 2 mps 752 mmHg 89%
    04:00 -1°C° 0 mm 2 mps 752 mmHg 90%
    05:00 -1°C° 0 mm 2 mps 752 mmHg 89%
    06:00 -1°C° 0 mm 2 mps 752 mmHg 89%
    07:00 +1°C° 0 mm 2 mps 752 mmHg 88%
    08:00 +1°C° 0 mm 2 mps 752 mmHg 87%
    09:00 +2°C° 0 mm 2 mps 752 mmHg 86%
    10:00 +3°C° 0 mm 2 mps 752 mmHg 85%
    11:00 +3°C° 0 mm 2 mps 752 mmHg 84%
    12:00 +3°C° 0 mm 2 mps 752 mmHg 83%
    13:00 +4°C° 0 mm 2 mps 752 mmHg 82%
    14:00 +3°C° 0 mm 2 mps 752 mmHg 85%
    15:00 +3°C° 0 mm 2 mps 751 mmHg 88%
    16:00 +2°C° 0 mm 2 mps 751 mmHg 91%
    17:00 +2°C° 0 mm 2 mps 751 mmHg 92%
    18:00 +2°C° 0 mm 2 mps 751 mmHg 93%
    19:00 +2°C° 0 mm 2 mps 751 mmHg 94%
    20:00 +2°C° 0 mm 2 mps 751 mmHg 95%
    21:00 +2°C° 0 mm 2 mps 751 mmHg 95%
    22:00 +2°C° 0 mm 2 mps 751 mmHg 96%
    23:00 +2°C° 0 mm 2 mps 750 mmHg 96%

    26 November, Tuesday

    Time Temperature Precipitation Wind Pressure Humidity
    00:00 +2°C° 0 mm 2 mps 750 mmHg 96%
    01:00 +2°C° 0 mm 2 mps 749 mmHg 97%
    02:00 +2°C° 0 mm 2 mps 749 mmHg 96%
    03:00 +1°C° 0 mm 3 mps 749 mmHg 96%
    04:00 +1°C° 0 mm 3 mps 748 mmHg 96%
    05:00 +1°C° 0 mm 3 mps 748 mmHg 95%
    06:00 +2°C° 0 mm 3 mps 748 mmHg 95%
    07:00 +2°C° 0 mm 3 mps 747 mmHg 94%
    08:00 +3°C° 0 mm 3 mps 747 mmHg 92%
    09:00 +3°C° 0 mm 4 mps 747 mmHg 90%
    10:00 +4°C° 0 mm 4 mps 747 mmHg 88%
    11:00 +4°C° 0 mm 4 mps 746 mmHg 86%
    12:00 +5°C° 0 mm 4 mps 746 mmHg 84%
    13:00 +6°C° 0 mm 4 mps 745 mmHg 82%
    14:00 +6°C° 0.3 mm 4 mps 745 mmHg 86%
    15:00 +6°C° 0.3 mm 4 mps 745 mmHg 90%
    16:00 +5°C° 0.3 mm 4 mps 745 mmHg 93%
    17:00 +5°C° 0.1 mm 4 mps 744 mmHg 93%
    18:00 +5°C° 0.1 mm 3 mps 744 mmHg 94%
    19:00 +5°C° 0.1 mm 3 mps 744 mmHg 94%
    20:00 +5°C° 0 mm 3 mps 744 mmHg 93%
    21:00 +5°C° 0 mm 3 mps 745 mmHg 93%
    22:00 +5°C° 0 mm 4 mps 745 mmHg 93%
    23:00 +5°C° 0.1 mm 4 mps 745 mmHg 91%
    Show more